Tracking 25689 objects as of 7-Jul-2022
HD Live streaming from Space Station
objects crossing your sky now

ORBCOMM FM 32

Track ORBCOMM FM 32 now!
10-day predictions
ORBCOMM FM 32 is classified as:


NORAD ID: 25982
Int'l Code: 1999-065C
Perigee: 787.3 km
Apogee: 794.6 km
Inclination: 45.0 °
Period: 100.5 minutes
Semi major axis: 7161 km
RCS: 0.8421 m2 (medium)
Launch date: December 4, 1999
Source: ORBCOMM (ORB)
Launch site: AIR FORCE EASTERN TEST RANGE (AFETR)
aabbcc
Your satellite tracking list
Your tracking list is empty




NASA's NSSDC Master Catalog

Two Line Element Set (TLE):
1 25982U 99065C   22187.54236733  .00000193  00000-0  12248-3 0  9991
2 25982  45.0168 129.5240 0005097  44.3074 315.8179 14.32369438180060
Source of the keplerian elements: AFSPC